#timestamp,LO_Frequency,Hit,StdDev 
1671937215.1,286046996.5,Y
1671937235.9,286047000.3,P
1671937255.7,286046999.9,N
1671937275.5,286047002.7,N
1671937295.4,286047000.2,N
1671937315.2,286046999.7,N
1671937335.1,286047001.1,N
1671937336.0,286047001.1,N
1671937355.8,286046998.8,N
1671937375.6,286046997.5,N
1671937395.5,286046999.2,N
1671937415.3,286046996.6,N
1671937435.2,286046996.9,N
1671937455.9,286046997.8,N
1671937475.7,286046997.1,N
1671937495.6,286046996.5,N
1671937515.4,286046998.2,N
1671937535.2,286046998.2,N
1671937555.1,286047001.0,N
1671937556.0,286047001.0,N
1671937575.8,286046998.2,N
1671937595.7,286047001.2,N
1671937645.5,286047001.2,E
1671937655.4,286046999.4,N
1671937675.3,286046997.3,P
1671937695.1,286046997.1,N
1671937715.9,286046997.3,N
1671937735.7,286046996.8,Y
1671937755.6,286046998.9,P
1671937775.4,286046997.2,P
1671937795.2,286046997.2,P
1671937815.1,286046997.7,Y
1671937816.0,286046997.7,P
1671937835.8,286047000.7,P
1671937855.6,286046998.7,N
1671937875.5,286047000.7,N
1671937895.3,286047001.0,N
1671937915.2,286047000.8,N
1671937935.9,286046999.3,N
1671937955.7,286046999.0,N
1671937975.6,286046998.3,N
1671937995.4,286046998.4,N
1671938015.2,286046998.1,N
1671938035.1,286047001.2,N
1671938036.0,286047001.2,N
1671938055.8,286047000.7,N
1671938075.7,286046998.2,N
1671938095.5,286047001.1,N
1671938115.3,286046998.2,N
1671938135.2,286046998.9,N
1671938155.0,286046998.1,N
1671938155.9,286046998.1,N
1671938175.7,286046998.5,N
1671938195.6,286046998.3,N
1671938215.4,286046998.4,N
1671938235.3,286046999.2,N
1671938255.1,286046999.0,N
1671938256.0,286046999.0,N
1671938275.8,286046999.4,N
1671938295.7,286046998.9,N
1671938315.5,286046997.0,N
1671938335.4,286046995.3,Y
1671938355.2,286046996.6,P
1671938375.0,286046996.5,N
1671938375.9,286046996.5,N
1671938395.8,286046997.7,N
1671938415.6,286046997.0,N
1671938435.5,286046996.7,Y
1671938455.3,286046999.9,P
1671938475.1,286047000.6,N
1671938495.9,286046998.4,N
1671938515.7,286047000.7,N
1671938535.5,286047001.1,N
1671938555.4,286047000.7,N
1671938575.2,286047000.8,N
1671938595.1,286047002.8,N
1671938596.0,286047002.8,N
1671938615.8,286046999.9,N
1671938635.6,286047000.5,N
1671938655.5,286046998.1,N
1671938675.3,286046997.0,N
1671938695.1,286046996.6,N
1671938715.9,286046996.9,N
1671938735.7,286046996.7,N
1671938755.6,286046997.8,N
1671938775.4,286046997.4,N
1671938795.2,286046996.9,N
1671938815.1,286046997.0,N
1671938816.0,286046997.0,N
1671938835.8,286046999.6,N
1671938855.7,286046999.1,N
1671938875.5,286046998.8,N
1671938895.3,286047001.2,N
1671938915.2,286046999.3,N
1671938935.0,286046996.8,N
1671938935.9,286046996.8,N
1671938955.7,286046998.9,N
1671938975.6,286046997.2,N
1671938995.4,286046996.9,N
1671939015.3,286046996.8,N
1671939035.1,286046996.8,N
1671939036.0,286046996.8,N
1671939055.8,286046998.0,N
1671939075.7,286046997.5,N
1671939095.5,286046999.6,N
1671939115.4,286046996.6,N
1671939135.2,286046997.3,N
1671939155.0,286046997.1,N
1671939155.9,286046997.1,N
1671939175.8,286046997.9,N
1671939195.6,286046997.6,N
1671939215.5,286046996.9,N
1671939235.3,286046997.3,N
1671939255.1,286046997.7,N
1671939275.9,286046997.9,N
1671939295.7,286046994.9,Y
1671939315.5,286046996.7,P
1671939335.4,286046997.8,P
1671939355.2,286046997.6,P
1671939375.1,286046997.9,Y
1671939376.0,286046997.9,P
1671939395.8,286047000.6,N
1671939415.6,286047000.5,N
1671939435.5,286047000.1,N
1671939455.3,286047000.7,N
1671939475.2,286047001.0,N
1671939495.9,286047000.9,N
1671939515.7,286046998.1,N
1671939535.6,286047001.2,N
1671939555.4,286046998.3,N
1671939575.2,286046998.1,N
1671939595.1,286046998.2,N
1671939596.0,286046998.2,N
1671939615.8,286046998.3,N
1671939635.7,286046998.5,N
1671939655.5,286047000.8,N
1671939675.3,286047000.3,N
1671939695.2,286047000.2,N
1671939715.9,286047000.0,N
1671939735.7,286047000.9,N
1671939755.6,286046998.1,N
1671939775.4,286047000.5,N
1671939795.3,286046998.2,N
1671939815.1,286047001.1,N
1671939816.0,286047001.1,N
1671939835.8,286046998.2,N
1671939855.7,286047000.6,N
1671939875.5,286047000.4,N
1671939895.3,286047001.1,N
1671939915.2,286047001.1,N
1671939935.0,286047001.2,N
1671939935.9,286047001.2,N
1671939955.8,286046998.4,N
1671939975.6,286046998.1,N
1671939995.4,286046998.4,N
1671940015.3,286046998.3,N
1671940035.1,286046998.7,N
1671940055.8,286046999.4,N
1671940075.7,286046998.2,N
1671940095.5,286046999.2,N
1671940115.4,286046998.8,N
1671940135.2,286046998.2,N
1671940155.0,286046998.5,N
1671940155.9,286046998.5,N
1671940175.8,286046999.2,N
1671940195.6,286046997.1,N
1671940215.5,286046997.0,N
1671940235.3,286046998.8,N
1671940255.1,286046999.4,N
1671940275.9,286047000.7,N
1671940295.7,286047001.1,N
1671940315.5,286047000.7,N
1671940335.4,286047000.9,N
1671940355.2,286047001.0,N
1671940375.1,286047000.7,N
1671940376.0,286047000.7,N
1671940395.8,286047001.0,N
1671940415.6,286047000.3,N
1671940435.5,286047002.0,N
1671940455.3,286047000.9,N
1671940475.1,286047000.2,N
1671940495.9,286047000.0,N
1671940515.7,286047000.9,N
1671940535.6,286047000.4,N
1671940555.4,286047000.8,N
1671940575.2,286047000.5,N
1671940595.1,286047000.4,N
1671940596.0,286047000.4,N
1671940615.8,286047002.4,N
1671940635.6,286047000.3,N
1671940655.5,286047000.0,N
1671940675.3,286047000.8,N
1671940695.2,286047000.4,N
1671940715.9,286046999.7,N
1671940735.7,286046999.7,N
1671940755.6,286047002.8,N
1671940775.4,286047002.2,N
1671940795.2,286047000.1,N
